AAL585 KJFK-TBPB

Flight info

Callsign AAL585
Flight time N/A
Altitude 35000
Route SHIPP Y492 SQUAD/M080F350 DCT DARUX L456 PRCHA/M080F370 L456 HANCY/N0468F370 L456 THANK DCT COY DCT LEEOO L454 ILURI UA555 BGI
Aircraft B738/M-SDE2E3FGHIRWXY/LB1

Departure

Time N/A
Airport John F. Kennedy International Airport (KJFK)

Arrival

Time 2026-05-04 01:12
Airport Grantley Adams International Airport (TBPB)
Time Latitude Longitude Altitude Speed Heading
2026-05-04 00:30 16.05211 -62.70859 37058 ft 481 kts 131°
2026-05-04 00:30 16.02978 -62.68252 37053 ft 481 kts 131°
2026-05-04 00:30 15.98913 -62.63507 37053 ft 481 kts 131°
2026-05-04 00:31 15.94467 -62.58322 37055 ft 481 kts 131°
2026-05-04 00:31 15.90014 -62.53132 37053 ft 481 kts 131°
2026-05-04 00:32 15.85582 -62.47970 37053 ft 481 kts 131°
2026-05-04 00:32 15.81118 -62.42775 37054 ft 482 kts 131°
2026-05-04 00:33 15.74417 -62.34984 37056 ft 483 kts 131°
2026-05-04 00:34 15.69940 -62.29784 37054 ft 483 kts 131°
2026-05-04 00:34 15.65455 -62.24580 37054 ft 484 kts 131°
2026-05-04 00:35 15.60969 -62.19375 37056 ft 484 kts 131°
2026-05-04 00:35 15.56473 -62.14165 37054 ft 484 kts 131°
2026-05-04 00:36 15.52006 -62.08993 37055 ft 484 kts 131°
2026-05-04 00:36 15.47516 -62.03801 37054 ft 483 kts 131°
2026-05-04 00:37 15.43023 -61.98609 37051 ft 483 kts 131°
2026-05-04 00:37 15.38537 -61.93429 37051 ft 482 kts 131°
2026-05-04 00:38 15.34052 -61.88254 37054 ft 482 kts 131°
2026-05-04 00:38 15.29603 -61.83125 37052 ft 481 kts 131°
2026-05-04 00:39 15.25127 -61.77967 37052 ft 481 kts 131°
2026-05-04 00:39 15.20660 -61.72822 37054 ft 480 kts 131°
2026-05-04 00:40 15.16190 -61.67679 37054 ft 480 kts 131°
2026-05-04 00:40 15.11720 -61.62539 37053 ft 480 kts 131°
2026-05-04 00:41 15.07247 -61.57400 37055 ft 481 kts 131°
2026-05-04 00:41 15.02769 -61.52257 37054 ft 481 kts 131°
2026-05-04 00:42 14.98312 -61.47143 37056 ft 482 kts 131°
2026-05-04 00:42 14.93820 -61.41991 37057 ft 482 kts 131°
2026-05-04 00:43 14.89324 -61.36838 37058 ft 482 kts 131°
2026-05-04 00:43 14.84826 -61.31688 37053 ft 483 kts 131°
2026-05-04 00:44 14.80319 -61.26530 37054 ft 483 kts 131°
2026-05-04 00:44 14.75816 -61.21381 37053 ft 483 kts 131°
2026-05-04 00:45 14.71306 -61.16227 37054 ft 483 kts 131°
2026-05-04 00:45 14.66822 -61.11107 37047 ft 484 kts 131°
2026-05-04 00:46 14.62309 -61.05957 37049 ft 483 kts 131°
2026-05-04 00:46 14.57680 -61.00930 37037 ft 484 kts 139°
2026-05-04 00:47 14.52448 -60.96555 37048 ft 483 kts 141°
2026-05-04 00:47 14.47185 -60.92241 37038 ft 484 kts 141°
2026-05-04 00:47 14.44536 -60.90049 36503 ft 491 kts 141°
2026-05-04 00:48 14.41890 -60.87846 35944 ft 488 kts 140°
2026-05-04 00:48 14.39250 -60.85639 35267 ft 489 kts 140°
2026-05-04 00:48 14.37102 -60.83839 34700 ft 490 kts 140°
2026-05-04 00:48 14.34453 -60.81618 33966 ft 492 kts 140°
2026-05-04 00:49 14.31827 -60.79415 33146 ft 494 kts 141°
2026-05-04 00:49 14.29158 -60.77179 32382 ft 494 kts 141°
2026-05-04 00:49 14.26491 -60.74945 31610 ft 495 kts 141°
2026-05-04 00:49 14.23814 -60.72704 30776 ft 497 kts 141°
2026-05-04 00:50 14.21122 -60.70453 29903 ft 498 kts 141°
2026-05-04 00:50 14.18428 -60.68202 28905 ft 499 kts 141°
2026-05-04 00:50 14.15730 -60.65947 27943 ft 499 kts 141°
2026-05-04 00:50 14.13026 -60.63689 26994 ft 500 kts 141°
2026-05-04 00:51 14.10342 -60.61447 26338 ft 493 kts 141°
2026-05-04 00:51 14.07692 -60.59235 25651 ft 488 kts 141°
2026-05-04 00:51 14.05387 -60.57311 25045 ft 484 kts 141°
2026-05-04 00:51 14.02783 -60.55136 24363 ft 479 kts 140°
2026-05-04 00:52 14.00198 -60.52980 23679 ft 475 kts 140°
2026-05-04 00:52 13.97635 -60.50842 22901 ft 471 kts 140°
2026-05-04 00:52 13.95137 -60.48759 22219 ft 465 kts 140°
2026-05-04 00:52 13.92633 -60.46672 21533 ft 459 kts 140°
2026-05-04 00:53 13.90163 -60.44613 20873 ft 454 kts 140°
2026-05-04 00:53 13.87725 -60.42582 20220 ft 449 kts 140°
2026-05-04 00:53 13.85310 -60.40568 19568 ft 444 kts 140°
2026-05-04 00:53 13.82922 -60.38580 18906 ft 440 kts 140°
2026-05-04 00:54 13.80547 -60.36602 18241 ft 437 kts 139°
2026-05-04 00:54 13.78198 -60.34647 17519 ft 433 kts 139°
2026-05-04 00:54 13.75868 -60.32708 16857 ft 427 kts 140°
2026-05-04 00:54 13.73571 -60.30798 16211 ft 422 kts 140°
2026-05-04 00:55 13.71299 -60.28908 15575 ft 417 kts 139°
2026-05-04 00:55 13.69052 -60.27040 14921 ft 413 kts 139°
2026-05-04 00:55 13.66855 -60.25215 14296 ft 409 kts 139°
2026-05-04 00:55 13.64651 -60.23384 13643 ft 405 kts 139°
2026-05-04 00:56 13.62474 -60.21575 12978 ft 401 kts 139°
2026-05-04 00:56 13.60319 -60.19784 12353 ft 395 kts 139°
2026-05-04 00:56 13.58190 -60.18016 11744 ft 390 kts 139°
2026-05-04 00:56 13.56091 -60.16272 11247 ft 383 kts 139°
2026-05-04 00:57 13.54066 -60.14592 11110 ft 366 kts 139°
2026-05-04 00:57 13.52121 -60.12979 10939 ft 352 kts 139°
2026-05-04 00:57 13.50251 -60.11425 10789 ft 339 kts 139°
2026-05-04 00:57 13.48450 -60.09930 10655 ft 327 kts 139°
2026-05-04 00:58 13.46710 -60.08485 10519 ft 316 kts 139°
2026-05-04 00:58 13.45026 -60.07087 10395 ft 305 kts 139°
2026-05-04 00:58 13.43421 -60.05754 10270 ft 296 kts 138°
2026-05-04 00:58 13.41841 -60.04444 10151 ft 287 kts 138°
2026-05-04 00:59 13.40315 -60.03178 10003 ft 279 kts 138°
2026-05-04 00:59 13.38805 -60.01925 9696 ft 278 kts 138°
2026-05-04 00:59 13.37307 -60.00682 9401 ft 275 kts 138°
2026-05-04 00:59 13.35822 -59.99451 9110 ft 273 kts 138°
2026-05-04 01:00 13.34348 -59.98229 8817 ft 271 kts 138°
2026-05-04 01:00 13.32883 -59.97016 8532 ft 270 kts 138°
2026-05-04 01:00 13.31428 -59.95810 8245 ft 268 kts 138°
2026-05-04 01:00 13.29980 -59.94611 7958 ft 266 kts 139°
2026-05-04 01:01 13.28540 -59.93419 7676 ft 265 kts 139°
2026-05-04 01:01 13.27111 -59.92236 7393 ft 264 kts 139°
2026-05-04 01:01 13.25679 -59.91051 7106 ft 264 kts 139°
2026-05-04 01:01 13.24250 -59.89868 6830 ft 263 kts 139°
2026-05-04 01:02 13.22822 -59.88686 6535 ft 263 kts 139°
2026-05-04 01:02 13.21395 -59.87505 6243 ft 264 kts 139°
2026-05-04 01:02 13.19987 -59.86341 5931 ft 263 kts 139°
2026-05-04 01:02 13.18562 -59.85165 5648 ft 262 kts 138°
2026-05-04 01:03 13.17148 -59.83996 5370 ft 260 kts 138°
2026-05-04 01:03 13.15722 -59.82817 5085 ft 259 kts 138°
2026-05-04 01:03 13.14357 -59.81691 4991 ft 247 kts 138°
2026-05-04 01:03 13.13050 -59.80613 4833 ft 229 kts 138°
2026-05-04 01:04 13.12251 -59.79954 4738 ft 217 kts 138°
2026-05-04 01:04 13.11504 -59.79338 4635 ft 207 kts 137°
2026-05-04 01:05 13.10395 -59.78420 4182 ft 209 kts 137°
2026-05-04 01:05 13.09263 -59.77482 3817 ft 210 kts 137°
2026-05-04 01:05 13.08133 -59.76548 3543 ft 207 kts 137°
2026-05-04 01:05 13.07033 -59.75641 3395 ft 197 kts 136°
2026-05-04 01:06 13.05989 -59.74781 3264 ft 189 kts 136°
2026-05-04 01:06 13.04972 -59.73941 3189 ft 189 kts 136°
2026-05-04 01:06 13.03780 -59.73303 3060 ft 199 kts 159°
2026-05-04 01:06 13.02524 -59.72727 3017 ft 196 kts 131°
2026-05-04 01:07 13.02068 -59.71549 3005 ft 175 kts 82°
2026-05-04 01:07 13.02363 -59.70360 3003 ft 172 kts 75°
2026-05-04 01:07 13.02641 -59.69143 2764 ft 172 kts 76°
2026-05-04 01:07 13.02908 -59.67977 2657 ft 164 kts 76°
2026-05-04 01:08 13.03178 -59.66822 2581 ft 170 kts 76°
2026-05-04 01:08 13.03459 -59.65636 2484 ft 172 kts 76°
2026-05-04 01:08 13.03741 -59.64463 2364 ft 167 kts 76°
2026-05-04 01:08 13.04018 -59.63305 2269 ft 167 kts 76°
2026-05-04 01:09 13.04292 -59.62159 2180 ft 164 kts 76°
2026-05-04 01:09 13.04567 -59.61030 2059 ft 164 kts 75°
2026-05-04 01:09 13.04844 -59.59901 1981 ft 159 kts 76°
2026-05-04 01:09 13.05104 -59.58840 1824 ft 145 kts 76°
2026-05-04 01:10 13.05341 -59.57879 1630 ft 137 kts 76°
2026-05-04 01:10 13.05565 -59.56963 1466 ft 130 kts 75°
2026-05-04 01:10 13.05788 -59.56054 1290 ft 133 kts 75°
2026-05-04 01:10 13.06011 -59.55148 1128 ft 134 kts 76°
2026-05-04 01:11 13.06239 -59.54220 965 ft 134 kts 76°
2026-05-04 01:11 13.06469 -59.53295 725 ft 134 kts 75°
2026-05-04 01:11 13.06696 -59.52388 513 ft 128 kts 75°
2026-05-04 01:11 13.06913 -59.51479 373 ft 134 kts 76°
2026-05-04 01:12 13.07147 -59.50529 208 ft 139 kts 78°
2026-05-04 01:12 13.07360 -59.49633 175 ft 112 kts 76°
2026-05-04 01:12 13.07513 -59.49007 174 ft 69 kts 76°
2026-05-04 01:12 13.07594 -59.48673 174 ft 30 kts 76°
2026-05-04 01:13 13.07640 -59.48484 172 ft 16 kts 76°
2026-05-04 01:13 13.07660 -59.48401 172 ft 20 kts 76°
2026-05-04 01:13 13.07730 -59.48340 172 ft 12 kts 347°
2026-05-04 01:13 13.07752 -59.48346 173 ft 5 kts 346°
2026-05-04 01:14 13.07793 -59.48356 175 ft 7 kts 346°
2026-05-04 01:14 13.07843 -59.48369 176 ft 0 kts 344°
2026-05-04 01:14 13.07852 -59.48375 176 ft 3 kts 319°
2026-05-04 01:14 13.07855 -59.48400 176 ft 5 kts 261°
2026-05-04 01:15 13.07845 -59.48450 176 ft 9 kts 256°
2026-05-04 01:15 13.07833 -59.48500 176 ft 1 kts 256°
2026-05-04 01:15 13.07828 -59.48523 176 ft 4 kts 261°
2026-05-04 01:15 13.07831 -59.48528 176 ft 1 kts 300°
2026-05-04 01:16 13.07853 -59.48540 176 ft 6 kts 346°
2026-05-04 01:16 13.07900 -59.48552 177 ft 5 kts 345°
2026-05-04 01:16 13.07925 -59.48558 177 ft 0 kts 345°